Weather History for KSRB - February, 2014

Change the Weather History Date:

Tuesday, February 4, 2014

  Actual Average (KCSV) Record (KCSV)
Temperature  
Mean Temperature 40 °F 37 °F  
Max Temperature 51 °F 46 °F 67 °F (1962)
Min Temperature 30 °F 28 °F -10 °F (1996)
Degree Days  
Heating Degree Days 24    
Month to date heating degree days  
Since 1 July heating degree days  
Cooling Degree Days 0    
Month to date cooling degree days  
Year to date cooling degree days  
Moisture  
Dew Point 39 °F    
Average Humidity 90    
Maximum Humidity 100    
Minimum Humidity 71    
Precipitation  
Precipitation 0.00 in 0.16 in 1.42 in (1975)
Month to date precipitation 0.65  
Year to date precipitation 5.41  
Sea Level Pressure  
Sea Level Pressure 30.02 in    
Wind  
Wind Speed 4 mph (ESE)    
Max Wind Speed 14 mph    
Max Gust Speed -    
Visibility 7 miles    
Events      
T = Trace of Precipitation, MM = Missing Value Source: NWS Daily Summary

Daily Weather History Graph

Daily Weather History Graph

Search for Another Location

Airport or City:

Trip Planner

Search our weather history database for the weather conditions in past years. The results will help you decide how hot, cold, wet, or windy it might be!

Date:

Astronomy

Feb. 04, 2014 Rise Set
Actual Time 6:40 AM CST 5:12 PM CST
Civil Twilight 6:13 AM CST 5:39 PM CST
Nautical Twilight 5:43 AM CST 6:09 PM CST
Astronomical Twilight 5:12 AM CST 6:39 PM CST
Moon 9:29 AM CST (2/4) 10:53 PM CST (2/4)
Length of Visible Light 11h 25m
Length of Day
10h 31m
Waxing Crescent, 29% of the Moon is Illuminated
Feb 4
Waxing Crescent
Feb 6
First Quarter
Feb 14
Full
Feb 22
Last Quarter
Mar 1
New

Hourly Weather History & Observations

Time (CST) Temp. Windchill Dew Point Humidity Pressure Visibility Wind Dir Wind Speed Gust Speed Precip Events Conditions
12:55 AM 30.2 °F - 30.2 °F 100% 30.20 in 4.0 mi Calm Calm - N/A   Overcast
1:15 AM 30.2 °F 25.4 °F 30.2 °F 100% 30.20 in 4.0 mi NE 4.6 mph - N/A   Overcast
1:35 AM 30.2 °F - 30.2 °F 100% 30.20 in 2.5 mi Calm Calm - N/A   Overcast
1:55 AM 30.2 °F 25.4 °F 30.2 °F 100% 30.20 in 2.0 mi North 4.6 mph - N/A   Overcast
2:15 AM 30.2 °F - 30.2 °F 100% 30.20 in 2.5 mi Calm Calm - N/A   Overcast
2:35 AM 30.2 °F 26.7 °F 30.2 °F 100% 30.19 in 3.0 mi NNE 3.5 mph - N/A   Overcast
2:55 AM 30.2 °F - 30.2 °F 100% 30.18 in 3.0 mi Calm Calm - N/A   Overcast
3:15 AM 30.2 °F 25.4 °F 30.2 °F 100% 30.18 in 3.0 mi NNE 4.6 mph - N/A   Overcast
3:35 AM 30.2 °F 25.4 °F 30.2 °F 100% 30.18 in 2.5 mi NE 4.6 mph - N/A   Overcast
3:55 AM 30.2 °F 25.4 °F 30.2 °F 100% 30.18 in 2.5 mi NNE 4.6 mph - N/A   Overcast
4:15 AM 30.2 °F 26.7 °F 30.2 °F 100% 30.18 in 3.0 mi NNE 3.5 mph - N/A   Overcast
4:35 AM 30.2 °F 26.7 °F 30.2 °F 100% 30.19 in 4.0 mi North 3.5 mph - N/A   Overcast
4:55 AM 30.2 °F - 30.2 °F 100% 30.19 in 5.0 mi Calm Calm - N/A   Overcast
5:15 AM 30.2 °F 25.4 °F 30.2 °F 100% 30.19 in 6.0 mi NNE 4.6 mph - N/A   Overcast
5:35 AM 30.2 °F 25.4 °F 30.2 °F 100% 30.19 in 7.0 mi NNE 4.6 mph - N/A   Overcast
5:55 AM 30.2 °F 26.7 °F 30.2 °F 100% 30.19 in 8.0 mi NNE 3.5 mph - N/A   Overcast
6:15 AM 32.0 °F 28.7 °F 30.2 °F 93% 30.20 in 8.0 mi NNE 3.5 mph - N/A   Overcast
6:35 AM 32.0 °F - 30.2 °F 93% 30.20 in 9.0 mi Calm Calm - N/A   Overcast
6:55 AM 32.0 °F - 30.2 °F 93% 30.20 in 9.0 mi Calm Calm - N/A   Overcast
7:15 AM 32.0 °F - 30.2 °F 93% 30.21 in 8.0 mi Calm Calm - N/A   Overcast
7:35 AM 32.0 °F 27.5 °F 30.2 °F 93% 30.21 in 7.0 mi NNE 4.6 mph - N/A   Overcast
7:55 AM 33.8 °F 29.6 °F 30.2 °F 87% 30.20 in 9.0 mi ENE 4.6 mph - N/A   Overcast
8:15 AM 33.8 °F 29.6 °F 32.0 °F 93% 30.18 in 10.0 mi ENE 4.6 mph - N/A   Overcast
8:35 AM 35.6 °F 32.8 °F 33.8 °F 93% 30.17 in 10.0 mi ENE 3.5 mph - N/A   Mostly Cloudy
8:55 AM 35.6 °F - 33.8 °F 93% 30.16 in 10.0 mi Calm Calm - N/A   Scattered Clouds
9:15 AM 37.4 °F 32.8 °F 33.8 °F 87% 30.15 in 10.0 mi ESE 5.8 mph - N/A   Partly Cloudy
9:35 AM 39.2 °F 34.2 °F 33.8 °F 81% 30.14 in 10.0 mi ESE 6.9 mph - N/A   Clear
9:55 AM 39.2 °F 35.0 °F 35.6 °F 87% 30.13 in 10.0 mi East 5.8 mph - N/A   Clear
10:15 AM 42.8 °F - 35.6 °F 76% 30.12 in 10.0 mi Calm Calm - N/A   Clear
10:35 AM 42.8 °F - 35.6 °F 76% 30.11 in - Calm Calm - N/A   Unknown
10:55 AM 46.4 °F - 37.4 °F 71% 30.10 in - Calm Calm - N/A   Unknown
11:15 AM 44.6 °F - 37.4 °F 76% 30.09 in 0.2 mi Calm Calm - N/A   Overcast
11:35 AM 46.4 °F 45.2 °F 37.4 °F 71% 30.06 in 10.0 mi East 3.5 mph - N/A   Overcast
11:55 AM 46.4 °F 44.3 °F 37.4 °F 71% 30.04 in 10.0 mi ENE 4.6 mph - N/A   Overcast
12:15 PM 46.4 °F 44.3 °F 39.2 °F 76% 30.01 in 10.0 mi East 4.6 mph - N/A   Overcast
12:35 PM 46.4 °F - 39.2 °F 76% 30.01 in 10.0 mi Calm Calm - N/A   Overcast
12:55 PM 48.2 °F - 39.2 °F 71% 30.00 in 10.0 mi ENE 3.5 mph - N/A   Overcast
1:15 PM 48.2 °F - 39.2 °F 71% 29.98 in 10.0 mi NE 3.5 mph - N/A   Overcast
1:35 PM 48.2 °F - 39.2 °F 71% 29.96 in 10.0 mi NE 4.6 mph - N/A   Overcast
1:55 PM 46.4 °F 44.3 °F 41.0 °F 81% 29.94 in 10.0 mi NE 4.6 mph - N/A   Overcast
2:15 PM 46.4 °F - 41.0 °F 81% 29.95 in 10.0 mi Calm Calm - N/A   Overcast
2:35 PM 46.4 °F 44.3 °F 42.8 °F 87% 29.94 in 5.0 mi Variable 4.6 mph - N/A   Overcast
2:55 PM 46.4 °F 44.3 °F 42.8 °F 87% 29.97 in 6.0 mi NNW 4.6 mph - N/A   Overcast
3:15 PM 44.6 °F 40.7 °F 42.8 °F 93% 29.94 in 9.0 mi NNE 6.9 mph - N/A   Overcast
3:35 PM 44.6 °F 39.7 °F 42.8 °F 93% 29.91 in 8.0 mi East 9.2 mph - N/A   Overcast
3:55 PM 44.6 °F 43.1 °F 42.8 °F 93% 29.91 in 8.0 mi East 3.5 mph - N/A   Overcast
4:15 PM 46.4 °F 41.9 °F 44.6 °F 93% 29.89 in 10.0 mi SE 9.2 mph - N/A   Overcast
4:35 PM 48.2 °F - 44.6 °F 87% 29.87 in 4.0 mi SE 11.5 mph - N/A   Overcast
4:55 PM 48.2 °F - 46.4 °F 93% 29.87 in 6.0 mi SSE 9.2 mph - N/A   Overcast
5:15 PM 48.2 °F - 46.4 °F 93% 29.85 in 6.0 mi SSE 5.8 mph - N/A   Overcast
5:35 PM 48.2 °F - 46.4 °F 93% 29.84 in 10.0 mi SSE 8.1 mph - N/A   Overcast
6:15 PM 50.0 °F - 48.2 °F 94% 29.82 in 10.0 mi South 13.8 mph - N/A   Overcast
6:35 PM 51.8 °F - 48.2 °F 88% 29.82 in 10.0 mi South 13.8 mph - N/A   Overcast
6:55 PM 51.8 °F - 48.2 °F 88% 29.83 in 10.0 mi South 9.2 mph - N/A   Overcast
7:15 PM 51.8 °F - 48.2 °F 88% 29.83 in 10.0 mi South 10.4 mph - N/A   Overcast
7:35 PM 51.8 °F - 48.2 °F 88% 29.83 in 10.0 mi South 11.5 mph - N/A   Overcast
7:55 PM 51.8 °F - 48.2 °F 88% 29.83 in 10.0 mi South 10.4 mph - N/A   Overcast
8:15 PM 51.8 °F - 48.2 °F 88% 29.83 in 10.0 mi South 11.5 mph - N/A   Overcast
8:35 PM 51.8 °F - 48.2 °F 88% 29.84 in 10.0 mi South 11.5 mph - N/A   Overcast
8:55 PM 50.0 °F - 48.2 °F 94% 29.83 in 4.0 mi South 11.5 mph - N/A   Overcast
9:15 PM 50.0 °F - 48.2 °F 94% 29.83 in 6.0 mi South 11.5 mph - N/A   Overcast
9:35 PM 50.0 °F - 48.2 °F 94% 29.83 in 7.0 mi South 11.5 mph - N/A   Overcast
9:55 PM 51.8 °F - 50.0 °F 94% 29.83 in 2.5 mi South 9.2 mph - N/A   Overcast
10:15 PM 51.8 °F - 50.0 °F 94% 29.82 in 3.0 mi South 8.1 mph - N/A   Overcast
10:35 PM 51.8 °F - 50.0 °F 94% 29.81 in 3.0 mi South 9.2 mph - N/A   Overcast
10:55 PM 50.0 °F - 48.2 °F 94% 29.79 in 2.5 mi SSE 11.5 mph - N/A   Overcast
11:15 PM 50.0 °F - 48.2 °F 94% 29.77 in 4.0 mi SSE 12.7 mph - N/A   Mostly Cloudy
11:35 PM 50.0 °F - 48.2 °F 94% 29.74 in 4.0 mi SSE 11.5 mph - N/A   Mostly Cloudy
11:55 PM 51.8 °F - 48.2 °F 88% 29.74 in 8.0 mi South 11.5 mph - N/A   Overcast